User: anonymous   Login
Location: Vancouver
(49.2500°N, 123.1330°W)
Time: 12:23:40
(UTC-07:00)
Language:

SO-67 - Orbit

View from above orbital plane
View from above orbital plane
View from above satellite
View from above satellite

Ground track
Ground track

The orbit data is extracted from the following two-line orbital elements,

1 35870U 09049F   17141.84604257 +.00005934 +00000-0 +95981-4 0  9992
2 35870 097.1046 158.8047 0003210 125.9172 359.4164 15.53208960429138
Epoch (UTC): 21 May 2017 20:18:18
Eccentricity: 0.0003210
inclination: 97.1046°
perigee height: 405 km
apogee height: 409 km
right ascension of ascending node: 158.8047°
argument of perigee: 125.9172°
revolutions per day: 15.53208960
mean anomaly at epoch: 359.4164°
orbit number at epoch: 42913

The dashed part of the orbit path shows where the satellite is in the earth's shadow,  

DLR